SDM9161 URWA-URWW

Flight info

Callsign SDM9161
Flight time 0h 42m
Altitude 29000
Route OMIRA5B OMIRA G242 LIDUS N50 SL SL2J
Aircraft A320/M-SDE3FGHIRWY/LB1

Departure

Time 2026-05-07 16:55
Airport Astrakhan Narimanovo Boris M. Kustodiev International Airport (URWA)

Arrival

Time 2026-05-07 17:37
Airport Volgograd International Airport (URWW)
Time Latitude Longitude Altitude Speed Heading
2026-05-07 16:37 46.28670 47.99952 -53 ft 0 kts 52°
2026-05-07 16:49 46.28671 47.99953 -53 ft 1 kts 56°
2026-05-07 16:49 46.28654 47.99970 -53 ft 5 kts 161°
2026-05-07 16:50 46.28621 48.00017 -53 ft 9 kts 102°
2026-05-07 16:50 46.28612 48.00120 -53 ft 10 kts 94°
2026-05-07 16:50 46.28603 48.00248 -53 ft 15 kts 97°
2026-05-07 16:50 46.28588 48.00429 -53 ft 19 kts 95°
2026-05-07 16:51 46.28571 48.00624 -53 ft 19 kts 102°
2026-05-07 16:51 46.28545 48.00819 -53 ft 20 kts 100°
2026-05-07 16:51 46.28519 48.01027 -53 ft 21 kts 101°
2026-05-07 16:51 46.28490 48.01250 -53 ft 22 kts 100°
2026-05-07 16:52 46.28461 48.01480 -53 ft 25 kts 99°
2026-05-07 16:52 46.28431 48.01799 -53 ft 34 kts 97°
2026-05-07 16:52 46.28404 48.02134 -53 ft 32 kts 97°
2026-05-07 16:52 46.28328 48.02249 -53 ft 10 kts 187°
2026-05-07 16:53 46.28322 48.02248 -53 ft 0 kts 187°
2026-05-07 16:53 46.28317 48.02247 -53 ft 4 kts 187°
2026-05-07 16:53 46.28241 48.02235 -53 ft 14 kts 190°
2026-05-07 16:54 46.28200 48.02113 -53 ft 15 kts 273°
2026-05-07 16:54 46.28226 48.01807 -53 ft 63 kts 276°
2026-05-07 16:54 46.28307 48.00835 -52 ft 129 kts 276°
2026-05-07 16:54 46.28438 47.99329 170 ft 160 kts 275°
2026-05-07 16:55 46.28563 47.97741 802 ft 163 kts 273°
2026-05-07 16:55 46.28756 47.96173 1532 ft 164 kts 289°
2026-05-07 16:55 46.29331 47.94720 2103 ft 176 kts 300°
2026-05-07 16:55 46.30056 47.93194 2594 ft 192 kts 302°
2026-05-07 16:56 46.30842 47.91559 3081 ft 209 kts 302°
2026-05-07 16:56 46.31702 47.89747 3521 ft 231 kts 302°
2026-05-07 16:56 46.33644 47.85596 4595 ft 266 kts 303°
2026-05-07 16:57 46.34678 47.83379 5403 ft 270 kts 303°
2026-05-07 16:57 46.35741 47.81092 6219 ft 273 kts 304°
2026-05-07 16:57 46.36807 47.78804 7044 ft 275 kts 304°
2026-05-07 16:57 46.37861 47.76544 7870 ft 275 kts 304°
2026-05-07 16:58 46.38927 47.74249 8675 ft 275 kts 304°
2026-05-07 16:58 46.39975 47.71988 9440 ft 276 kts 304°
2026-05-07 16:58 46.41049 47.69668 10203 ft 276 kts 304°
2026-05-07 16:58 46.42121 47.67345 10660 ft 289 kts 304°
2026-05-07 16:59 46.43277 47.64838 10995 ft 306 kts 304°
2026-05-07 16:59 46.44475 47.62228 11509 ft 315 kts 304°
2026-05-07 16:59 46.45678 47.59606 12210 ft 317 kts 304°
2026-05-07 16:59 46.46896 47.56949 12910 ft 320 kts 304°
2026-05-07 17:00 46.48137 47.54236 13610 ft 322 kts 304°
2026-05-07 17:00 46.49377 47.51526 14263 ft 326 kts 305°
2026-05-07 17:00 46.50635 47.48786 14866 ft 331 kts 304°
2026-05-07 17:00 46.51904 47.46010 15473 ft 335 kts 304°
2026-05-07 17:01 46.53189 47.43190 16075 ft 339 kts 304°
2026-05-07 17:01 46.54504 47.40304 16657 ft 343 kts 304°
2026-05-07 17:01 46.55818 47.37418 17215 ft 347 kts 304°
2026-05-07 17:01 46.57159 47.34472 17768 ft 351 kts 304°
2026-05-07 17:02 46.58503 47.31515 18305 ft 355 kts 304°
2026-05-07 17:02 46.59875 47.28493 18843 ft 359 kts 304°
2026-05-07 17:02 46.61248 47.25468 19363 ft 361 kts 304°
2026-05-07 17:02 46.62625 47.22427 19857 ft 365 kts 304°
2026-05-07 17:03 46.64027 47.19332 20361 ft 369 kts 304°
2026-05-07 17:03 46.65444 47.16199 20860 ft 372 kts 304°
2026-05-07 17:03 46.66860 47.13061 21339 ft 375 kts 304°
2026-05-07 17:03 46.68298 47.09870 21816 ft 378 kts 304°
2026-05-07 17:04 46.69730 47.06691 22276 ft 381 kts 304°
2026-05-07 17:04 46.71188 47.03426 22735 ft 384 kts 304°
2026-05-07 17:04 46.72626 47.00193 23175 ft 387 kts 304°
2026-05-07 17:04 46.74102 46.96867 23619 ft 390 kts 304°
2026-05-07 17:05 46.75560 46.93578 24048 ft 393 kts 304°
2026-05-07 17:05 46.77040 46.90234 24473 ft 395 kts 304°
2026-05-07 17:05 46.78531 46.86863 24898 ft 398 kts 304°
2026-05-07 17:05 46.80038 46.83453 25382 ft 398 kts 304°
2026-05-07 17:06 46.81520 46.80093 25912 ft 397 kts 304°
2026-05-07 17:06 46.83001 46.76732 26429 ft 395 kts 304°
2026-05-07 17:06 46.84485 46.73360 26954 ft 395 kts 304°
2026-05-07 17:06 46.85964 46.69997 27461 ft 394 kts 304°
2026-05-07 17:07 46.87427 46.66665 27910 ft 395 kts 304°
2026-05-07 17:07 46.88913 46.63279 28334 ft 397 kts 304°
2026-05-07 17:07 46.90414 46.59853 28748 ft 399 kts 304°
2026-05-07 17:07 46.91908 46.56436 28985 ft 406 kts 304°
2026-05-07 17:08 46.93453 46.52905 29057 ft 418 kts 304°
2026-05-07 17:08 46.95047 46.49261 29100 ft 431 kts 304°
2026-05-07 17:08 46.96669 46.45543 29058 ft 442 kts 304°
2026-05-07 17:08 46.98343 46.41695 29037 ft 452 kts 304°
2026-05-07 17:09 47.01742 46.33874 29010 ft 462 kts 304°
2026-05-07 17:09 47.05778 46.27193 28930 ft 460 kts 321°
2026-05-07 17:10 47.11043 46.22310 28913 ft 459 kts 334°
2026-05-07 17:10 47.16821 46.18252 28944 ft 459 kts 335°
2026-05-07 17:11 47.22620 46.14212 28955 ft 458 kts 335°
2026-05-07 17:11 47.28300 46.10220 28963 ft 457 kts 335°
2026-05-07 17:12 47.34054 46.06154 28964 ft 456 kts 334°
2026-05-07 17:12 47.39732 46.02134 28958 ft 455 kts 335°
2026-05-07 17:13 47.45432 45.98112 28956 ft 455 kts 335°
2026-05-07 17:13 47.51133 45.94077 28954 ft 454 kts 335°
2026-05-07 17:14 47.56827 45.90032 28954 ft 452 kts 335°
2026-05-07 17:14 47.62519 45.85977 28795 ft 452 kts 335°
2026-05-07 17:15 47.65339 45.83965 28608 ft 451 kts 335°
2026-05-07 17:15 47.68178 45.81936 28395 ft 451 kts 335°
2026-05-07 17:15 47.70982 45.79930 27996 ft 451 kts 335°
2026-05-07 17:15 47.73817 45.77899 27447 ft 452 kts 335°
2026-05-07 17:16 47.76658 45.75862 26800 ft 452 kts 335°
2026-05-07 17:16 47.79481 45.73834 26088 ft 453 kts 335°
2026-05-07 17:16 47.82282 45.71820 25267 ft 446 kts 335°
2026-05-07 17:16 47.85039 45.69833 24559 ft 436 kts 335°
2026-05-07 17:17 47.87717 45.67901 23904 ft 426 kts 335°
2026-05-07 17:17 47.90365 45.65989 23285 ft 417 kts 335°
2026-05-07 17:17 47.92929 45.64135 22716 ft 408 kts 335°
2026-05-07 17:17 47.95540 45.62245 22153 ft 400 kts 335°
2026-05-07 17:18 47.98049 45.60427 21635 ft 391 kts 335°
2026-05-07 17:18 48.00439 45.58694 21185 ft 382 kts 336°
2026-05-07 17:18 48.02805 45.56977 20741 ft 375 kts 336°
2026-05-07 17:18 48.05140 45.55281 20285 ft 370 kts 336°
2026-05-07 17:19 48.07445 45.53605 19825 ft 365 kts 336°
2026-05-07 17:19 48.09708 45.51958 19369 ft 360 kts 336°
2026-05-07 17:19 48.11953 45.50322 18915 ft 356 kts 336°
2026-05-07 17:19 48.14175 45.48700 18462 ft 352 kts 336°
2026-05-07 17:20 48.16367 45.47104 18059 ft 347 kts 336°
2026-05-07 17:20 48.18534 45.45524 17717 ft 344 kts 336°
2026-05-07 17:20 48.20675 45.43960 17379 ft 342 kts 336°
2026-05-07 17:20 48.22807 45.42401 17043 ft 340 kts 336°
2026-05-07 17:21 48.24916 45.40857 16709 ft 339 kts 336°
2026-05-07 17:21 48.27014 45.39317 16358 ft 336 kts 337°
2026-05-07 17:21 48.29128 45.37766 15656 ft 342 kts 337°
2026-05-07 17:21 48.31284 45.36185 14982 ft 345 kts 337°
2026-05-07 17:22 48.33415 45.34617 14490 ft 340 kts 336°
2026-05-07 17:22 48.35542 45.33045 14015 ft 334 kts 336°
2026-05-07 17:22 48.37602 45.31524 13560 ft 330 kts 336°
2026-05-07 17:22 48.39572 45.29735 13096 ft 329 kts 324°
2026-05-07 17:23 48.41184 45.27312 12653 ft 330 kts 311°
2026-05-07 17:23 48.42478 45.24489 12217 ft 329 kts 307°
2026-05-07 17:23 48.43712 45.21597 11778 ft 327 kts 307°
2026-05-07 17:23 48.44918 45.18743 11344 ft 323 kts 307°
2026-05-07 17:24 48.46114 45.15924 10913 ft 320 kts 307°
2026-05-07 17:24 48.47300 45.13135 10487 ft 315 kts 307°
2026-05-07 17:24 48.48470 45.10388 10296 ft 300 kts 307°
2026-05-07 17:24 48.49563 45.07814 10173 ft 286 kts 307°
2026-05-07 17:25 48.50603 45.05365 10050 ft 273 kts 307°
2026-05-07 17:25 48.51629 45.02956 9835 ft 272 kts 307°
2026-05-07 17:25 48.52645 45.00571 9478 ft 270 kts 307°
2026-05-07 17:25 48.53658 44.98191 9134 ft 269 kts 307°
2026-05-07 17:26 48.54661 44.95838 8800 ft 267 kts 307°
2026-05-07 17:26 48.55667 44.93478 8466 ft 265 kts 307°
2026-05-07 17:26 48.56661 44.91145 8136 ft 263 kts 307°
2026-05-07 17:26 48.57632 44.88855 7816 ft 261 kts 307°
2026-05-07 17:27 48.58607 44.86554 7495 ft 259 kts 306°
2026-05-07 17:27 48.59566 44.84282 7179 ft 257 kts 306°
2026-05-07 17:27 48.60521 44.82018 6865 ft 255 kts 306°
2026-05-07 17:27 48.61518 44.79819 6534 ft 253 kts 313°
2026-05-07 17:28 48.62726 44.77918 6205 ft 249 kts 322°
2026-05-07 17:28 48.64088 44.76264 5879 ft 248 kts 325°
2026-05-07 17:28 48.65434 44.74707 5565 ft 246 kts 325°
2026-05-07 17:28 48.66798 44.73129 5247 ft 244 kts 325°
2026-05-07 17:29 48.68145 44.71567 4935 ft 243 kts 324°
2026-05-07 17:29 48.69465 44.70024 4630 ft 242 kts 324°
2026-05-07 17:29 48.70795 44.68464 4334 ft 239 kts 323°
2026-05-07 17:29 48.72118 44.66917 4042 ft 238 kts 323°
2026-05-07 17:30 48.73406 44.65406 3747 ft 236 kts 323°
2026-05-07 17:30 48.74698 44.63887 3507 ft 231 kts 323°
2026-05-07 17:30 48.75956 44.62513 3481 ft 215 kts 328°
2026-05-07 17:30 48.77231 44.61452 3461 ft 207 kts 333°
2026-05-07 17:31 48.78534 44.60506 3428 ft 207 kts 334°
2026-05-07 17:31 48.79833 44.59575 3373 ft 204 kts 333°
2026-05-07 17:31 48.81087 44.58675 3242 ft 195 kts 333°
2026-05-07 17:31 48.82279 44.57814 3112 ft 186 kts 333°
2026-05-07 17:32 48.83427 44.56924 2970 ft 185 kts 320°
2026-05-07 17:32 48.84125 44.55345 2723 ft 186 kts 283°
2026-05-07 17:32 48.84076 44.53409 2755 ft 181 kts 262°
2026-05-07 17:32 48.83840 44.52219 2755 ft 170 kts 255°
2026-05-07 17:33 48.83284 44.50160 2568 ft 147 kts 252°
2026-05-07 17:33 48.82862 44.48758 2374 ft 144 kts 251°
2026-05-07 17:33 48.82438 44.47408 2211 ft 138 kts 250°
2026-05-07 17:33 48.82029 44.46128 2012 ft 132 kts 250°
2026-05-07 17:34 48.81632 44.44894 1833 ft 131 kts 250°
2026-05-07 17:34 48.81229 44.43634 1659 ft 131 kts 250°
2026-05-07 17:34 48.80834 44.42394 1490 ft 130 kts 249°
2026-05-07 17:34 48.80445 44.41170 1314 ft 130 kts 247°
2026-05-07 17:35 48.80052 44.39932 1142 ft 130 kts 246°
2026-05-07 17:35 48.79665 44.38692 983 ft 129 kts 245°
2026-05-07 17:35 48.79268 44.37460 810 ft 129 kts 245°
2026-05-07 17:35 48.78876 44.36241 629 ft 128 kts 245°
2026-05-07 17:36 48.78485 44.35012 472 ft 127 kts 245°
2026-05-07 17:36 48.78271 44.34333 454 ft 107 kts 244°
2026-05-07 17:36 48.78045 44.33633 438 ft 60 kts 244°
2026-05-07 17:36 48.77872 44.33073 425 ft 59 kts 245°
2026-05-07 17:37 48.77685 44.32494 414 ft 63 kts 244°
2026-05-07 17:37 48.77546 44.32041 405 ft 44 kts 249°
2026-05-07 17:37 48.77533 44.31840 401 ft 0 kts 291°